Total_Precipitation_Accumulation
0.76 0.78 0.76 0.69 0.64 0.63 0.63 0.60 0.55 0.48 0.40 0.34 0.29 0.27 0.26 0.24 0.24 0.24 0.23 0.21 0.20 0.18 0.16 0.15 0.15 0.15 0.16 0.15 0.18 0.23 0.28 0.35 0.38 0.21 0.15 0.20 0.29 0.35 0.41 0.40 0.36 0.34 0.29
0.61 0.60 0.58 0.51 0.46 0.45 0.45 0.44 0.41 0.39 0.36 0.34 0.32 0.31 0.27 0.23 0.21 0.21 0.20 0.18 0.17 0.16 0.14 0.14 0.12 0.12 0.14 0.15 0.18 0.21 0.25 0.31 0.39 0.32 0.22 0.24 0.31 0.41 0.49 0.51 0.44 0.39 0.36
0.39 0.37 0.40 0.39 0.37 0.39 0.37 0.35 0.36 0.36 0.34 0.32 0.31 0.29 0.24 0.22 0.21 0.20 0.17 0.15 0.13 0.13 0.13 0.14 0.14 0.15 0.17 0.20 0.24 0.26 0.28 0.30 0.42 0.50 0.39 0.34 0.37 0.47 0.60 0.58 0.48 0.49 0.38
0.30 0.27 0.29 0.30 0.29 0.31 0.31 0.30 0.29 0.29 0.28 0.24 0.22 0.21 0.20 0.18 0.15 0.12 0.10 0.10 0.10 0.10 0.11 0.14 0.15 0.19 0.23 0.27 0.27 0.30 0.37 0.42 0.44 0.48 0.46 0.43 0.47 0.53 0.67 0.73 0.60 0.52 0.42
0.29 0.28 0.28 0.27 0.25 0.26 0.26 0.27 0.26 0.23 0.19 0.17 0.15 0.14 0.15 0.13 0.09 0.06 0.05 0.06 0.07 0.09 0.11 0.13 0.14 0.17 0.23 0.27 0.29 0.37 0.48 0.56 0.53 0.53 0.52 0.52 0.56 0.66 0.71 0.70 0.65 0.52 0.38
0.34 0.34 0.31 0.27 0.24 0.25 0.23 0.23 0.22 0.20 0.17 0.14 0.13 0.11 0.09 0.06 0.04 0.03 0.03 0.05 0.09 0.13 0.17 0.15 0.11 0.11 0.13 0.18 0.26 0.34 0.44 0.53 0.60 0.65 0.66 0.62 0.60 0.66 0.70 0.71 0.70 0.65 0.50
0.39 0.33 0.29 0.23 0.22 0.20 0.18 0.18 0.18 0.16 0.13 0.12 0.11 0.10 0.09 0.05 0.01 0.01 0.01 0.04 0.12 0.18 0.20 0.18 0.12 0.10 0.15 0.21 0.23 0.25 0.33 0.45 0.61 0.74 0.77 0.66 0.67 0.75 0.81 0.81 0.71 0.70 0.65
0.31 0.28 0.23 0.20 0.19 0.17 0.16 0.15 0.13 0.13 0.13 0.12 0.11 0.10 0.10 0.05 0.00 0.00 0.00 0.05 0.14 0.16 0.16 0.16 0.19 0.22 0.19 0.17 0.19 0.30 0.46 0.57 0.60 0.61 0.72 0.73 0.75 0.73 0.70 0.68 0.64 0.69 0.64
0.24 0.21 0.18 0.16 0.13 0.12 0.12 0.13 0.13 0.13 0.13 0.11 0.10 0.10 0.11 0.08 0.01 0.00 0.01 0.07 0.12 0.12 0.12 0.12 0.15 0.22 0.17 0.21 0.32 0.51 0.71 0.88 0.76 0.71 0.74 0.85 0.88 0.76 0.58 0.56 0.72 0.80 0.67
0.20 0.17 0.14 0.12 0.11 0.12 0.13 0.14 0.14 0.14 0.14 0.10 0.08 0.10 0.12 0.10 0.02 0.00 0.01 0.06 0.11 0.12 0.15 0.17 0.18 0.20 0.20 0.32 0.43 0.66 0.88 1.00 0.86 0.80 0.89 1.02 0.97 0.87 0.77 0.76 0.83 0.81 0.70
0.11 0.10 0.10 0.10 0.10 0.08 0.12 0.14 0.15 0.16 0.17 0.15 0.14 0.15 0.14 0.08 0.04 0.01 0.01 0.04 0.08 0.14 0.20 0.27 0.29 0.28 0.27 0.39 0.56 0.75 0.99 1.01 0.91 0.85 0.84 0.86 0.85 0.84 0.78 0.79 0.76 0.71 0.67
0.07 0.08 0.09 0.09 0.06 0.06 0.12 0.15 0.15 0.17 0.17 0.17 0.18 0.18 0.16 0.11 0.05 0.02 0.00 0.01 0.04 0.16 0.29 0.35 0.35 0.33 0.35 0.53 0.68 0.87 1.11 1.21 1.03 0.86 0.72 0.66 0.65 0.68 0.67 0.59 0.54 0.53 0.56
0.09 0.12 0.12 0.10 0.09 0.07 0.08 0.11 0.12 0.14 0.14 0.13 0.15 0.16 0.16 0.16 0.09 0.02 0.01 0.02 0.04 0.13 0.29 0.41 0.41 0.38 0.55 0.85 1.00 1.11 1.28 1.32 1.09 0.82 0.68 0.61 0.55 0.52 0.52 0.52 0.48 0.45 0.44
0.13 0.14 0.12 0.13 0.13 0.10 0.09 0.06 0.07 0.09 0.10 0.11 0.14 0.16 0.17 0.17 0.10 0.06 0.06 0.08 0.10 0.14 0.25 0.40 0.53 0.58 0.76 1.04 1.23 1.33 1.38 1.27 1.02 0.82 0.69 0.60 0.52 0.49 0.49 0.46 0.44 0.41 0.43
0.13 0.11 0.11 0.10 0.10 0.11 0.09 0.04 0.03 0.04 0.02 0.05 0.10 0.13 0.15 0.13 0.06 0.06 0.08 0.10 0.13 0.17 0.23 0.38 0.56 0.67 0.86 1.07 1.19 1.21 1.17 1.08 0.98 0.81 0.68 0.61 0.57 0.53 0.51 0.46 0.44 0.38 0.42
0.12 0.10 0.09 0.08 0.07 0.07 0.09 0.08 0.02 0.01 0.01 0.01 0.03 0.06 0.07 0.06 0.05 0.05 0.07 0.12 0.16 0.22 0.29 0.47 0.63 0.74 0.89 1.01 1.07 1.05 0.98 0.90 0.81 0.72 0.66 0.60 0.57 0.53 0.51 0.44 0.38 0.37 0.42
0.08 0.09 0.08 0.05 0.05 0.06 0.08 0.13 0.15 0.09 0.03 0.02 0.02 0.03 0.04 0.04 0.04 0.04 0.07 0.12 0.15 0.22 0.35 0.54 0.69 0.81 0.91 0.95 0.96 0.92 0.86 0.81 0.71 0.63 0.59 0.55 0.49 0.46 0.44 0.39 0.34 0.35 0.36
0.05 0.04 0.04 0.05 0.04 0.05 0.05 0.07 0.14 0.21 0.20 0.15 0.07 0.03 0.04 0.04 0.06 0.06 0.08 0.13 0.20 0.25 0.40 0.55 0.67 0.74 0.81 0.85 0.82 0.81 0.76 0.69 0.61 0.56 0.56 0.52 0.45 0.40 0.36 0.34 0.31 0.27 0.26
0.04 0.04 0.02 0.02 0.01 0.02 0.02 0.03 0.06 0.11 0.16 0.18 0.15 0.10 0.06 0.08 0.10 0.13 0.15 0.19 0.27 0.34 0.42 0.51 0.58 0.63 0.67 0.70 0.68 0.65 0.63 0.59 0.52 0.47 0.47 0.48 0.45 0.39 0.33 0.26 0.22 0.17 0.18
0.02 0.02 0.00 0.00 0.00 0.01 0.01 0.02 0.04 0.07 0.10 0.14 0.16 0.14 0.13 0.20 0.26 0.25 0.21 0.20 0.25 0.33 0.40 0.47 0.50 0.49 0.49 0.51 0.49 0.45 0.45 0.45 0.42 0.41 0.41 0.39 0.38 0.32 0.26 0.21 0.18 0.15 0.15
0.01 0.01 0.00 0.00 0.00 0.00 0.01 0.02 0.03 0.05 0.09 0.13 0.13 0.11 0.18 0.25 0.33 0.31 0.28 0.28 0.31 0.34 0.35 0.38 0.40 0.41 0.37 0.34 0.34 0.33 0.34 0.35 0.35 0.36 0.35 0.34 0.31 0.26 0.20 0.15 0.12 0.10 0.09
0.00 0.00 0.00 0.00 0.00 0.00 0.00 0.02 0.03 0.04 0.07 0.10 0.11 0.10 0.18 0.24 0.31 0.33 0.33 0.34 0.36 0.37 0.35 0.33 0.32 0.33 0.34 0.32 0.29 0.28 0.29 0.30 0.32 0.33 0.31 0.28 0.25 0.20 0.15 0.11 0.08 0.06 0.06
0.00 0.00 0.00 0.00 0.00 0.00 0.00 0.01 0.02 0.03 0.04 0.06 0.07 0.09 0.14 0.24 0.30 0.36 0.39 0.39 0.38 0.36 0.31 0.28 0.29 0.31 0.30 0.27 0.25 0.24 0.24 0.25 0.28 0.30 0.30 0.26 0.21 0.17 0.12 0.09 0.06 0.05 0.03
0.00 0.00 0.00 0.00 0.00 0.00 0.00 0.01 0.01 0.02 0.02 0.04 0.05 0.08 0.12 0.19 0.25 0.33 0.40 0.42 0.44 0.42 0.37 0.33 0.31 0.30 0.27 0.24 0.24 0.22 0.18 0.19 0.22 0.25 0.26 0.22 0.16 0.12 0.09 0.07 0.05 0.04 0.03
0.00 0.00 0.00 0.00 0.00 0.00 0.00 0.01 0.01 0.01 0.01 0.02 0.03 0.05 0.07 0.12 0.18 0.25 0.31 0.37 0.41 0.45 0.45 0.42 0.38 0.32 0.26 0.21 0.17 0.14 0.16 0.19 0.17 0.17 0.22 0.19 0.12 0.08 0.07 0.06 0.05 0.04 0.04
0.00 0.00 0.00 0.00 0.00 0.00 0.00 0.01 0.01 0.00 0.01 0.01 0.02 0.03 0.05 0.09 0.13 0.17 0.20 0.22 0.26 0.33 0.39 0.44 0.43 0.33 0.24 0.19 0.17 0.16 0.15 0.10 0.07 0.07 0.16 0.17 0.11 0.08 0.07 0.06 0.05 0.04 0.04